Theta_e
311 313 314 311 312 313 314 313 312 312 313 313 312 312 311 312 311 311 311 311 311 311 313 314 340 341 341 342 341 342 341 338 335 336 340 344 345 345 340 339 338 340 341 340
314 316 316 317 315 315 315 314 314 313 314 314 314 313 313 313 312 312 313 313 312 311 312 315 340 342 340 339 339 337 336 335 334 335 342 340 339 335 338 337 341 341 334 335
318 319 319 318 317 316 315 315 314 313 314 314 315 316 316 315 314 314 314 314 314 312 312 316 338 343 342 341 341 340 339 336 336 335 339 337 337 336 333 337 343 339 335 332
319 318 320 319 318 316 316 315 315 315 314 314 316 318 317 317 318 318 317 316 315 312 313 319 337 344 344 343 339 336 338 338 336 339 337 338 337 338 334 341 342 341 343 335
322 320 320 321 319 318 316 315 315 315 314 313 315 316 315 318 319 318 317 314 313 314 313 322 338 346 346 344 341 336 336 336 334 341 341 345 344 346 346 346 343 343 345 343
323 321 319 319 320 319 316 314 314 313 314 315 315 317 317 317 320 320 318 316 314 313 312 329 339 344 343 349 349 346 344 340 341 343 344 343 338 342 343 342 341 338 333 332
325 325 322 320 322 318 316 313 313 315 314 316 315 316 316 318 320 319 317 316 316 315 312 329 339 338 341 341 342 344 346 344 346 346 344 342 340 339 337 331 329 332 332 328
328 329 324 322 318 317 315 313 312 317 317 316 318 317 316 317 318 321 318 317 323 323 320 331 338 338 338 332 330 331 332 328 329 329 332 332 332 332 327 325 324 324 323 322
326 327 321 321 320 317 316 312 312 318 322 319 318 318 323 325 325 326 324 327 325 332 336 340 335 333 330 327 327 327 326 324 324 323 324 323 322 322 321 320 320 320 320 320
324 323 321 320 319 319 317 314 316 320 325 324 322 328 329 328 328 331 330 329 330 334 334 333 331 328 326 326 325 324 323 323 322 321 320 320 320 319 319 318 318 318 318 318
323 324 325 323 323 320 317 315 317 318 321 321 325 328 327 328 326 332 330 329 328 327 326 325 324 324 322 323 322 322 321 320 319 319 318 318 317 317 317 317 317 317 317 317
322 325 325 324 321 321 320 321 316 319 320 320 321 323 328 327 330 328 330 329 328 327 326 325 323 321 319 315 317 316 315 316 316 316 316 316 315 315 316 315 315 316 315 315
325 328 325 326 322 320 323 323 317 318 318 324 323 326 326 328 328 328 328 328 327 324 321 319 317 316 313 312 312 313 313 313 313 313 313 313 313 313 313 313 314 314 315 315
323 325 321 325 323 321 324 323 321 317 320 325 326 329 328 328 330 328 326 324 325 324 321 317 314 313 313 312 312 312 312 312 312 312 312 312 312 312 311 311 311 312 312 312
322 327 321 325 324 326 325 322 322 319 320 321 327 328 328 326 328 327 326 326 325 322 320 316 314 312 312 311 310 310 310 311 311 311 310 309 308 308 308 307 307 307 307 306
321 327 322 328 328 327 328 326 325 323 326 327 328 327 326 325 325 326 326 325 323 318 316 314 313 311 309 308 307 308 308 307 308 307 305 305 305 305 304 304 303 303 303 303
323 326 324 329 326 327 328 327 328 327 326 328 329 327 324 327 327 326 324 321 317 316 314 313 309 306 304 304 305 304 304 305 304 303 302 301 301 300 300 301 301 301 301 301
325 326 321 324 325 331 326 324 327 328 328 326 327 326 324 321 319 320 315 315 314 313 309 306 304 302 301 302 302 302 302 301 300 299 299 298 298 297 297 298 299 299 299 300
324 326 324 325 326 327 327 324 330 326 327 325 324 321 317 315 314 314 312 311 309 307 305 303 301 300 299 299 299 299 299 298 297 297 297 296 296 296 297 298 298 298 299 299
320 321 322 324 329 331 326 325 324 325 329 324 321 319 318 319 317 314 311 309 307 306 304 302 300 299 299 298 297 296 294 294 294 294 294 294 294 295 296 297 297 297 298 299
327 326 326 326 327 327 326 324 325 327 326 322 319 318 316 314 313 309 308 307 306 304 302 301 299 297 296 296 295 294 293 293 293 293 294 294 294 294 296 296 296 296 297 298
325 325 327 327 324 326 325 326 327 322 317 316 314 312 311 310 309 307 306 306 305 303 302 300 298 297 296 295 295 293 293 293 293 293 293 293 294 294 295 295 296 296 297 298
326 323 325 324 327 320 320 320 317 315 314 313 313 312 310 309 307 305 304 304 303 303 302 300 299 297 297 295 294 293 293 293 292 292 292 292 292 293 294 294 294 295 296 297
326 324 324 323 320 318 317 316 315 313 312 311 309 308 306 305 304 303 302 301 300 300 300 299 298 297 296 295 294 294 294 294 293 291 291 291 292 292 293 293 294 294 295 296
323 322 321 320 317 316 315 312 311 309 307 306 305 305 304 303 303 301 300 299 298 298 298 297 296 295 294 294 293 293 295 294 292 291 290 291 291 292 292 293 294 294 295 296
321 321 322 322 317 315 312 308 306 306 305 304 303 302 302 301 301 300 299 298 298 297 297 295 295 294 294 294 293 294 294 294 292 291 290 290 290 291 291 292 292 295 294 297
Wind_Speed
11 12 20 21 16 8 9 8 8 5 9 8 13 14 11 13 7 10 9 9 10 10 14 14 29 33 31 30 37 39 38 36 32 24 23 23 26 22 17 13 15 16 20 25
7 20 11 11 12 15 10 12 11 7 6 7 12 14 16 14 9 14 16 11 11 8 7 7 25 29 36 41 38 39 39 45 43 34 31 18 23 20 22 17 15 12 14 17
21 7 16 16 13 14 13 14 7 10 4 10 5 11 15 11 17 15 12 10 8 11 11 9 15 26 29 33 40 37 38 40 39 32 23 18 19 18 19 19 17 16 15 17
17 21 23 14 17 13 16 9 13 19 7 6 6 10 7 11 12 7 9 8 10 10 6 9 13 18 28 37 38 35 37 40 39 26 25 19 11 10 20 20 18 16 14 13
20 20 25 21 24 18 12 12 16 17 12 5 18 1 7 4 4 7 9 9 9 11 11 11 16 25 31 31 31 34 32 32 31 25 22 17 17 14 15 19 17 19 19 15
21 12 21 26 15 20 13 10 12 13 9 7 14 6 6 5 6 6 7 13 11 10 8 12 22 27 20 25 29 27 28 29 25 22 21 18 18 20 16 19 20 15 15 14
17 19 16 12 21 17 21 10 5 5 5 6 10 4 7 4 4 7 9 8 9 9 10 13 15 13 20 23 26 27 28 20 21 22 23 23 20 22 27 25 20 17 15 14
16 12 26 20 18 15 16 16 6 7 5 5 4 4 5 5 5 7 5 12 7 6 12 15 15 16 23 24 29 30 30 27 25 23 21 20 20 24 21 21 20 18 14 10
12 12 5 22 18 16 14 10 11 4 3 4 2 1 6 12 13 13 11 13 10 13 16 20 17 22 24 26 28 31 29 25 26 25 25 21 19 18 15 13 12 9 6 3
4 6 17 15 10 18 17 6 7 3 6 4 0 3 2 8 9 12 17 16 15 15 14 17 18 23 26 29 31 27 25 24 22 20 19 18 16 14 12 9 7 4 2 3
2 2 2 3 4 15 7 15 4 6 6 5 3 3 6 5 6 14 13 18 17 17 15 12 14 26 28 32 32 28 26 24 21 18 15 13 12 11 8 7 5 3 4 5
9 1 4 5 6 1 2 3 5 7 4 2 5 5 2 4 11 18 14 15 18 19 15 11 8 14 22 23 27 30 28 25 20 19 17 15 12 9 7 5 5 6 9 10
9 6 4 3 4 3 4 4 4 6 4 3 6 4 1 10 13 16 19 17 16 19 17 14 9 11 19 25 26 30 28 25 21 19 16 14 12 11 10 10 10 10 11 11
2 3 4 6 2 4 5 2 2 5 4 6 4 5 2 6 14 12 17 18 17 17 21 12 9 8 17 24 25 27 26 22 19 17 16 14 13 11 11 10 9 9 8 6
1 4 5 3 2 7 4 10 7 5 7 7 8 11 7 8 12 15 18 18 19 18 16 12 12 9 17 21 23 24 24 21 17 16 16 16 13 11 11 11 12 13 14 15
3 4 12 4 11 6 2 1 3 3 7 10 14 6 3 8 10 9 12 16 16 17 17 14 14 14 18 18 20 22 21 19 15 15 14 13 14 16 17 19 20 21 21 21
4 2 4 5 4 1 1 1 2 6 13 19 13 6 7 14 13 13 15 14 18 16 16 15 14 16 17 19 20 20 18 15 14 14 14 16 17 19 19 19 19 20 21 20
3 2 3 3 3 4 2 3 4 12 6 14 17 13 11 14 11 11 14 20 18 16 15 13 15 17 19 20 19 17 17 15 16 17 18 18 19 20 19 18 18 20 19 18
2 2 4 4 2 2 3 4 5 18 6 13 24 21 21 22 26 16 14 16 17 15 14 17 19 20 20 21 19 18 17 16 17 16 15 16 17 20 19 18 18 18 18 19
4 1 3 3 4 2 2 3 6 4 3 7 24 22 24 20 13 7 12 16 16 18 18 20 19 25 27 22 19 19 18 16 14 15 17 18 18 18 17 18 20 19 18 19
4 4 5 4 4 4 12 11 4 6 5 18 21 17 13 8 10 14 14 13 19 19 22 25 25 23 21 19 18 15 13 16 19 17 17 17 17 18 16 17 19 19 20 21
3 5 3 4 3 3 10 8 7 5 8 17 15 21 23 21 16 14 14 13 14 17 18 20 20 20 17 18 20 15 14 17 20 20 19 17 18 16 16 18 17 17 16 16
1 4 5 2 3 1 13 21 15 18 20 19 23 20 23 20 17 15 13 13 12 16 17 19 20 17 13 16 17 14 13 18 20 19 19 18 17 17 17 17 17 16 15 14
7 9 10 11 8 19 20 17 18 20 21 18 19 19 19 19 16 15 14 12 13 17 17 17 18 15 10 13 15 15 17 21 22 20 18 18 18 19 18 17 16 15 15 14
2 6 14 18 17 20 18 20 21 21 21 21 17 18 18 18 15 15 11 11 15 19 17 17 18 15 11 11 14 13 15 21 23 18 19 19 19 18 20 20 19 16 14 15
3 11 10 12 11 19 15 17 22 22 19 19 21 17 15 19 15 14 10 15 17 19 21 20 17 14 12 10 17 14 15 18 25 19 20 18 18 19 19 19 21 14 17 13
Wind_Direction
194 197 207 211 218 228 224 220 236 220 229 238 245 255 236 250 224 236 234 238 237 233 232 203 158 160 162 169 173 183 186 188 178 191 185 194 194 190 161 180 194 203 217 231
220 218 203 206 201 204 212 234 244 287 266 221 249 250 240 233 229 227 229 224 221 223 205 146 148 151 159 168 179 181 183 186 193 204 196 196 204 198 203 205 199 196 200 202
215 216 201 202 212 210 220 228 228 239 300 271 270 265 253 248 228 228 227 221 208 203 193 147 155 158 157 163 176 180 187 187 194 196 205 218 200 198 199 201 206 201 209 209
227 232 198 202 217 208 229 213 233 252 250 251 166 269 227 211 204 202 219 225 222 191 197 148 151 155 160 172 176 181 182 182 183 189 197 191 171 190 209 215 221 212 222 224
208 200 218 211 213 207 232 219 227 242 249 251 273 221 266 144 237 256 252 214 207 186 179 157 161 157 171 171 180 177 178 181 188 194 198 205 213 205 206 211 204 207 209 204
219 200 201 226 219 218 218 230 233 247 243 246 250 165 282 190 185 267 274 200 188 187 156 149 163 154 140 152 163 173 181 185 190 198 212 215 218 215 191 172 163 158 142 152
214 220 225 203 225 224 213 206 237 218 206 218 230 144 226 234 259 252 188 174 190 199 125 142 143 122 120 123 132 153 164 151 172 187 198 202 192 181 159 152 146 158 141 135
214 216 212 218 207 205 214 197 163 187 161 192 203 193 250 238 323 25 249 158 134 112 127 131 133 125 122 110 113 119 121 116 117 115 122 137 144 140 131 130 128 130 135 141
191 221 176 217 226 212 219 197 200 153 158 91 244 117 14 28 20 41 57 47 33 107 121 122 113 104 102 106 114 114 112 113 112 111 112 114 113 114 110 107 116 122 124 137
284 209 229 241 240 226 209 199 167 289 132 161 298 74 137 20 31 44 58 52 49 66 81 106 107 108 105 107 111 113 114 107 105 100 100 101 101 100 98 94 90 81 39 347
266 30 7 47 117 226 221 213 189 127 126 146 131 235 183 141 96 77 64 68 61 62 62 66 94 104 112 120 119 116 114 111 106 100 97 91 84 75 65 57 44 7 328 314
205 306 180 205 278 328 186 125 150 166 168 159 152 240 177 149 113 100 76 77 79 69 58 46 38 89 92 86 93 95 96 93 95 97 93 84 76 67 59 39 3 334 323 319
164 207 121 49 321 217 205 129 122 117 117 184 139 243 3 120 115 111 106 104 97 87 74 47 40 48 83 83 78 76 77 78 77 74 67 57 45 30 16 6 355 339 327 319
23 186 156 180 128 123 132 132 253 153 104 156 169 151 187 92 127 126 116 112 107 112 111 125 79 75 70 75 75 72 65 58 52 49 48 40 33 33 32 27 15 4 352 339
293 196 166 114 133 135 147 210 221 179 170 153 181 148 169 158 142 148 140 130 138 135 133 119 107 92 73 65 62 61 57 47 46 48 45 45 42 28 12 359 346 333 328 323
220 246 159 105 81 40 167 229 325 184 113 100 128 89 160 111 107 121 133 134 128 124 108 104 89 72 66 60 56 53 50 46 46 49 38 19 6 352 346 338 335 330 326 325
218 242 94 124 21 359 193 249 284 134 148 139 142 146 117 125 140 150 142 119 112 108 104 93 81 74 64 59 55 51 43 38 39 30 15 358 347 337 335 335 335 333 330 329
236 87 69 123 83 175 163 269 252 106 99 112 114 116 115 103 96 93 98 110 106 96 90 84 85 76 61 54 50 44 37 34 23 13 1 351 344 337 334 333 333 329 328 324
224 104 97 108 94 320 125 15 113 120 91 116 118 121 118 112 90 71 90 97 104 103 97 93 85 79 67 54 46 43 34 17 12 4 351 344 338 331 333 331 326 322 319 313
160 227 109 108 97 96 304 182 200 154 54 151 134 137 133 122 104 121 112 107 105 107 106 97 83 70 59 48 43 41 28 16 357 343 336 333 335 333 326 326 325 323 318 312
176 159 105 109 100 197 105 149 183 76 200 149 134 135 114 96 108 124 116 105 107 104 97 91 81 79 70 59 56 51 30 10 358 340 335 343 339 335 328 324 325 324 323 326
76 116 101 86 122 90 107 122 169 166 98 111 102 109 102 107 113 115 110 108 107 107 105 104 96 82 66 47 45 41 25 1 358 352 345 341 344 339 336 331 327 328 328 323
190 162 127 100 109 20 74 108 108 112 112 114 113 113 114 115 114 110 100 97 96 106 106 98 95 91 70 50 44 40 16 2 353 352 352 354 357 356 348 337 335 332 333 332
60 45 110 90 72 89 92 87 94 104 108 107 105 110 110 111 107 102 97 95 92 94 102 104 104 98 89 53 41 35 31 13 3 360 0 5 1 353 351 348 344 339 338 337
87 109 105 100 103 90 85 94 101 96 98 98 97 108 110 107 103 104 100 98 101 102 100 102 101 92 77 57 35 39 31 18 11 5 9 10 2 358 355 352 346 352 1 351
56 135 119 123 111 107 109 105 104 101 106 108 107 96 94 104 106 103 99 107 104 95 96 98 95 82 64 51 31 42 31 23 20 12 15 12 3 0 358 354 353 23 11 22